Regional Weather Roundup
Issued by NWS Wakefield, VA

Home | Current Version | Previous Version | Graphics & Text | Print | Product List | Glossary On
Versions: 1 2 3 4 5 6 7 8 9 10 11 12 13 14 15 16 17 18 19 20 21 22 23 24 25 26 27 28 29 30 31 32 33 34 35 36 37 38 39 40 41 42 43 44 45 46 47 48 49 50
756
ASUS41 KAKQ 130015
RWRAKQ

REGIONAL WEATHER ROUNDUP
NATIONAL WEATHER SERVICE WAKEFIELD VA
700 PM EST FRI FEB 12 2016

Note: "fair" indicates few or no clouds below 12,000 feet with no
significant weather and/or obstructions to visibility. * = Denotes
station may not report precipitation (e.g., rain,snow,etc.),
thunder or fog.

VAZ042-051-052>054-056-130100-
NORTHERN VIRGINIA

CITY           SKY/WX    TMP DP  RH WIND       PRES   REMARKS
WASH NATIONAL  MOCLDY    28  12  51 SE6       30.02S
DULLES         CLOUDY    27   7  42 CALM      29.99S
FORT BELVOIR   MOCLDY    28   9  45 SE1       30.01R
QUANTICO       FAIR      32  11  41 SW6       30.03R
FREDERICKSBRG* MOCLDY    29  14  52 SE3       30.00S
STAFFORD*      FAIR      28   9  44 S3        30.04R
WARRENTON      FAIR      28  15  58 CALM      29.99R
CULPEPER*      CLOUDY    26   9  50 CALM      30.00R
MANASSAS*      CLEAR     28  12  50 CALM      30.00R
LEESBURG*      CLOUDY    30  14  51 CALM      30.00S
WINCHESTER     LGT SNOW  27  21  80 NW3       29.97S
FRONT ROYAL*   CLOUDY    28  18  64 NW5       29.96R
LURAY*         CLOUDY    28  16  59 N10       29.95R WCI  19
$$

VAZ048-049-060>072-079>083-130100-
CENTRAL AND SOUTH CENTRAL VIRGINIA

CITY           SKY/WX    TMP DP  RH WIND       PRES   REMARKS
RICHMOND       MOCLDY    27  18  69 S9        30.01F
CHESTERFIELD*  CLOUDY    28   9  43 SW6       30.02F
PETERSBURG*    CLOUDY    29  18  62 S3        30.03S
HANOVER        CLOUDY    28  14  55 S3        30.01F
TAPPAHANNOCK*  CLOUDY    29  17  61 CALM      30.01F
QUINTON*       CLOUDY    28  19  70 S3        30.01S
CHARLOTTSVILLE CLOUDY    29  14  53 S7        29.95R
GORDONSVILLE*  CLOUDY    29  15  55 S6        29.97R
ORANGE*        CLOUDY    30  12  47 SE3       29.99R
LOUISA*        CLOUDY    28  16  59 CALM      29.97R
BUMPASS*       CLOUDY    28  12  51 CALM      29.99S
FARMVILLE*     CLOUDY    29  18  63 S5        29.98F
CREWE*         CLOUDY    28  20  72 S5        30.01S
FORT PICKETT*  CLOUDY    27  20  75 SW7       30.01R
CHASE CITY*    CLOUDY    28  19  68 CALM      30.01S
CLARKSVILLE*   CLOUDY    28  19  69 CALM      30.02R
SOUTH HILL*    MOCLDY    25  20  84 N3        30.08S
LAWRENCEVILLE* CLOUDY    27  21  80 CALM      30.02F
EMPORIA*       CLOUDY    28  21  74 CALM      30.04F
$$

VAZ088>098-130100-
SOUTHEAST VIRGINIA

CITY           SKY/WX    TMP DP  RH WIND       PRES   REMARKS
NORFOLK        CLOUDY    28  23  81 VRB5      30.02R
VIRGINIA BEACH CLOUDY    31  24  75 W6        30.00S
NORFOLK NAVAL  CLOUDY    29  23  78 W5        30.04R
WEST POINT*    CLOUDY    28  21  74 S5        30.03F
SALUDA*        CLOUDY    27  21  80 CALM      30.02F
NEWPORT NEWS   CLOUDY    27  23  85 NW3       30.04R
LANGLEY AFB    CLOUDY    27  23  86 W5        30.02R
FORT EUSTIS    CLOUDY    28  24  87 SW3       30.01F
WILLIAMSBURG*  CLOUDY    30  25  80 CALM      30.03F
HR EXEC AP*    CLOUDY    28  23  80 CALM      30.04R
FRANKLIN*      CLOUDY    28  23  83 W6        30.05R
US460-WAKEFLD  CLOUDY    28  23  81 CALM      30.03S
$$

VAZ020-022-025-037-045-130100-
WEST CENTRAL AND SOUTHWEST VIRGINIA

CITY           SKY/WX    TMP DP  RH WIND       PRES   REMARKS
STAUNTON*      CLOUDY    34  19  55 SW8       29.93R
WAYNESBORO*    CLOUDY    29  16  58 SW5       29.91R
HOT SPRINGS VA LGT SNOW  21  21 100 W21G31    29.78R WCI   6
LYNCHBURG      CLOUDY    27  17  66 SW7       29.98F
DANVILLE       CLOUDY    32  16  51 CALM      30.02R
SOUTH BOSTON*  CLOUDY    30  19  63 CALM      30.02R
MARTINSVILLE   CLOUDY    31  13  47 W3        30.02R
ROANOKE        CLOUDY    31  19  61 N3        29.98S
BLACKSBURG     CLOUDY    31  23  73 W14G24    29.96R WCI  20
DUBLIN*        CLOUDY    32  24  71 W15       29.96S WCI  22
MARION*        MIX PCPN  30  24  78 W25G35    29.96S WCI  16
HILLSVILLE*    CLOUDY    29  24  83 W21G32    29.91R WCI  16
RICHLANDS*     FLURRIES  26  19  75 W14       30.00R WCI  15
WISE*          CLOUDY    28  19  69 W7G20     30.04R
ABINGDON*      CLOUDY    32  26  77 W10G18    30.05R WCI  24
$$

MDZ021>025-VAZ099-100-130100-
SOUTHERN MARYLAND AND THE DELMARVA PENINSULA

CITY           SKY/WX    TMP DP  RH WIND       PRES   REMARKS
PATUXENT RIVER CLOUDY    27  17  66 SE3       30.01F
BAY BRIDGE APT FLURRIES  27  18  69 CALM      30.03S
LEONARDTOWN    CLOUDY    28  16  59 MISG        N/A
DOVER          CLOUDY    26  12  54 CALM      30.02S
GEORGETOWN     FLURRIES  27  11  51 W5        30.02F
EASTON         NOT AVBL
CAMBRIDGE      CLOUDY    27  14  59 S3        30.02F
SALISBURY      CLOUDY    26  14  60 W6        30.03S
OCEAN CITY     FLURRIES  25  17  72 SW6       30.03F
WALLOPS ISLAND LGT SNOW  26  21  81 W3        30.03F
ACCOMACK*      FLURRIES  27  21  80 CALM      30.02S
$$

NCZ012>017-030>032-130100-
NORTH CENTRAL AND EASTERN NORTH CAROLINA

CITY           SKY/WX    TMP DP  RH WIND       PRES   REMARKS
ROANOKE RAPIDS MOCLDY    30  23  74 CALM      30.04R
RALEIGH        MOCLDY    31  21  66 W3        30.04R
ELIZABETH CITY CLOUDY    29  27  92 N7        30.00S
AHOSKIE*       NOT AVBL
EDENTON*       CLOUDY    30  29  94 N3        30.02S
CURRITUCK*     CLOUDY    30  30  99 CALM      30.00F
KILL DEVIL HLS MIX PCPN  34  32  94 N5        29.96F
MANTEO         DRIZZLE   33  33 100 NE5       29.98F
CAPE HATTERAS  PTCLDY    36  35  96 VRB7      29.97F
TARBORO*       CLOUDY    30  26  86 CALM      30.05R
GOLDSBORO      CLOUDY    30  30 100 NW3       30.02R
WASHINGTON       N/A     30  28  93 CALM      30.02F
GREENVILLE     CLOUDY    30  30 100 CALM      30.05S
NEW BERN       CLOUDY    33  31  92 N6        30.03S
WILMINGTON     CLOUDY    35  31  85 NW6       30.05R
$$

VAZ048-130100-
ELSEWHERE

CITY           SKY/WX    TMP DP  RH WIND       PRES   REMARKS
HARRISBURG PA  FLURRIES  22  14  71 CALM      29.99F
BALTIMORE      CLOUDY    25  14  63 NE7       30.02S
ANNAPOLIS      CLOUDY    27  18  69 SE9       30.03R
ANDREWS AFB    MOCLDY    26  13  58 S6        29.99S
PHILADELPHIA   LGT SNOW  22  14  71 S5        30.04S
HENDERSON NC   CLOUDY    29  14  52 CALM      30.02R
GREENSBORO     CLOUDY    34  18  52 SW6       30.00R
ROCKY MOUNT    CLOUDY    29  24  82 W3        30.04R
$$

VAZ100-130100-
MARINE

STATION/POSITION TIME  TEMP    WIND        PRES    WAVE   SWELL
                       AIR SEA DIR/SP/G            HT/PER HT/PER
                 (UTC) (F)     (DEG/KT/KT) (MB)    (FT/S) (FT/S)
BRANDYWINE LGT   2300   25                 1017.0F
CAPE MAY NJ      2300   25 37              1016.8F
LEWES DE         2300   27 38              1016.9F
15NM E FENWICK I 2350   27 42              1017.2F   1/ 8
OCEAN-CITY-INLET 2300   27 38              1016.4S
WACHAPREAGUE VA  2300   26 36              1016.5F
THOMAS POINT MD  0000   26 36  170/  7/  8 1017.6R
GOOSES REEF MD   2300   28 38  170/  8/ 12 1018.1R   1/ 3
COVE POINT MD    2300   26                 1017.6S
SOLOMONS ISLAND  2300   28 39                N/A
BISHOPS HEAD MD  2300   27 35              1016.0F
PINEY POINT MD   2300          220/  8/ 11   N/A
POTOMAC MD       2300   27 39  200/ 10/ 14 1015.9R   1/ 2
CAMBRIDGE MD     2300   27 36              1016.6R
LEWISETTA VA     2300   27 36              1016.6F
RAPPAHANNOCK LGT 2300                      1016.9F
STINGRAY PT      2300   28 40  210/  6/  8 1016.7F   1/ 3
YORK RVR RNG VA  2300   28                 1015.7F
YORKTOWN VA      2300   27 40              1016.3F
JAMESTOWN VA     2300   27 41  210/  4/  8   N/A     0
DOMINION TERM VA 2300   28                 1016.0F
KIPTOPEKE VA     2300      40                N/A
CHES BAY BRIDGE  2300   28 40              1015.7F
CAPE HENRY VA    2300   27                   N/A
CHESAPEAKE LGHT  2300   28      80/  2/  3 1016.9F
WILLOUBY STN VA  2300   27                 1016.8F
CAPE HENRY BUOY  2328      42                N/A     1/ 8
1ST LANDING BUOY 2300      40                N/A     1
CAPE CHARLES BUO 2326      41                N/A     1/ 8   2/ 8
OFFSHORE WE BUOY 2321      44                N/A     2/ 6   2/ 6
64NM E OF VA BCH 2350   34 48   40/  6/ 10 1015.1F   2/ 7   2/ 7
DUCK PIER NC     2300   31                 1015.2F
44100 DUCK FRF   2324      45                N/A     2/ 5
44056 DUCK FRF   2311      42                N/A     2/ 5
OREGON INLET NC  2300   34 41              1015.3F
HATTERAS NC      2300   36 46              1014.4F
DIAMOND SHLS NC  2350   44 63   20/ 19/ 21 1013.9F   5/ 6   2/15
$$




USA.gov is the U.S. government's official web portal to all federal, state and local government web resources and services.